Location: Kershaw
(34.5481°N, 80.5823°W)
Time: 05:18:05
(UTC+00:00)

Tiros 1 despin weight - Pass Details

Date: 09 October 2022
Orbit: 590 x 637 km, 48.2° (Epoch: 09 December)

Event Time Altitude Azimuth Distance (km) Brightness Sun altitude
Rises 00:39:23 0° 311° (NW) 2,878 ? -21.9°
Reaches altitude 10° 00:41:45 10° 316° (NW) 1,980 ? -22.4°
Enters shadow 00:45:59 49° 23° (NNE) 803 ? -23.3°
